Stations météo

Publicité
Ajaccio, France (7761): Température de l'air & dewpoint: 15.10.2017 10:00:00 - 21.10.2017 10:00:00 (CEST)Ajaccio, France (7761): Température de l'air 5cm: 15.10.2017 10:00:00 - 21.10.2017 10:00:00 (CEST)Ajaccio, France (7761): Température de l'air -20cm & Température de l'air -100cm: 15.10.2017 10:00:00 - 21.10.2017 10:00:00 (CEST)Ajaccio, France (7761): Vitesse du vent & gusts: 15.10.2017 10:00:00 - 21.10.2017 10:00:00 (CEST)Ajaccio, France (7761): Direction du vent: 15.10.2017 10:00:00 - 21.10.2017 10:00:00 (CEST)Ajaccio, France (7761): reduced air pressure: 15.10.2017 10:00:00 - 21.10.2017 10:00:00 (CEST)Ajaccio, France (7761): visibility: 15.10.2017 10:00:00 - 21.10.2017 10:00:00 (CEST)Ajaccio, France (7761): Ensoleillement: 15.10.2017 10:00:00 - 21.10.2017 10:00:00 (CEST)Ajaccio, France (7761): Quantités de précipitations: 15.10.2017 10:00:00 - 21.10.2017 10:00:00 (CEST)
Date & Time tt [°C] td [°C] tt 5cm [°C] tt -20cm [°C] tt -100cm [°C] ff [km/h] ff [knt] fx [km/h] fx [knt] dd ppp [hPa] vv [km] sd [min] rr [mm]
21.10.2017 10:00:00 19,5 12,5 17,5 20,4 22,2 8 4 16 9 NNE 1021,4 10 60 0,0
21.10.2017 09:00:00 14,9 11,5 13,5 20,5 22,2 8 4 13 7 ENE 1021,4 10 48 0,0
21.10.2017 08:00:00 13,9 10,9 12,7 20,6 22,2 9 5 18 10 ENE 1020,9 10 0 0,0
21.10.2017 07:00:00 14,6 11,0 12,7 20,7 22,2 13 7 20 11 NNE 1020,6 10 0 0,0
21.10.2017 06:00:00 13,6 10,8 12,4 20,8 22,3 11 6 17 9 NE 1020,6 10 0 0,0
21.10.2017 05:00:00 13,6 10,6 12,6 20,9 22,3 13 7 18 10 NE 1020,5 10 0 0,0
21.10.2017 04:00:00 13,9 10,9 12,9 21,0 22,2 11 6 18 10 NE 1020,4 10 0 0,0
21.10.2017 03:00:00 14,0 10,8 13,0 21,1 22,3 9 5 18 10 NE 1020,6 10 0 0,0
21.10.2017 02:00:00 13,9 10,7 13,0 21,2 22,3 13 7 17 9 NE 1020,8 10 0 0,0
21.10.2017 01:00:00 14,4 11,0 13,6 21,2 22,3 11 6 15 8 NE 1020,8 10 0 0,0
21.10.2017 00:00:00 15,5 11,1 14,3 21,2 22,3 9 5 16 8 NE 1020,8 10 0 0,0
20.10.2017 23:00:00 15,6 11,4 14,6 21,2 22,3 11 6 14 7 NE 1020,6 10 0 0,0
20.10.2017 22:00:00 16,8 11,9 15,4 21,1 22,3 9 5 13 7 NE 1020,3 10 0 0,0
20.10.2017 21:00:00 17,8 12,5 16,6 20,9 22,3 9 5 14 8 NE 1019,8 10 0 0,0
20.10.2017 20:00:00 19,7 12,9 17,7 20,8 22,3 5 3 9 5 ENE 1019,3 10 0 0,0
20.10.2017 19:00:00 22,3 13,1 21,0 20,5 22,3 5 3 14 8 N 1018,9 10 12 0,0
20.10.2017 18:00:00 23,8 13,3 23,0 20,3 22,3 8 4 19 11 NW 1018,1 10 60 0,0
20.10.2017 17:00:00 25,5 13,0 26,0 20,1 22,3 14 7 22 12 NW 1017,7 30 60 0,0
20.10.2017 16:00:00 26,0 14,1 27,3 20,0 22,3 9 5 19 10 SSW 1017,3 10 60 0,0
20.10.2017 15:00:00 25,2 17,1 31,2 19,9 22,3 11 6 20 11 SW 1017,0 10 60 0,0
20.10.2017 14:00:00 24,6 14,4 31,4 19,9 22,3 11 6 18 10 SW 1017,3 10 60 0,0
20.10.2017 13:00:00 24,9 13,4 31,5 20,0 22,3 9 5 14 8 SW 1017,6 10 60 0,0
20.10.2017 12:00:00 25,3 11,5 25,3 20,0 22,3 2 1 9 5 - 1018,1 10 54 0,0
20.10.2017 11:00:00 20,9 9,5 14,2 20,2 22,3 8 4 17 9 NNE 1018,3 10 55 0,0
20.10.2017 10:00:00 13,2 7,4 12,0 20,3 22,3 11 6 20 11 NE 1018,1 10 1 0,0
20.10.2017 09:00:00 12,4 6,7 10,4 20,4 22,3 9 5 19 10 NE 1017,9 10 0 0,0
20.10.2017 08:00:00 11,2 6,1 9,9 20,5 22,3 9 5 17 9 ENE 1016,9 10 0 0,0
20.10.2017 07:00:00 13,2 6,1 9,9 20,6 22,3 9 5 16 9 NNE 1016,2 10 0 0,0
20.10.2017 06:00:00 12,4 6,0 10,5 20,8 22,4 5 3 16 8 NNE 1015,5 10 0 0,0
20.10.2017 05:00:00 13,4 6,0 11,2 20,8 22,3 9 5 15 8 NE 1014,5 10 0 0,0
20.10.2017 04:00:00 13,0 5,9 11,9 20,9 22,4 11 6 14 7 NE 1014,6 10 0 0,0
20.10.2017 03:00:00 15,9 7,1 13,6 21,0 22,3 11 6 18 10 NNE 1014,9 10 0 0,0
20.10.2017 02:00:00 14,9 7,7 12,9 21,1 22,3 11 6 20 11 NE 1014,9 10 0 0,0
20.10.2017 01:00:00 14,3 7,8 13,1 21,1 22,4 13 7 17 9 NE 1014,7 10 0 0,0
20.10.2017 00:00:00 15,4 8,2 13,8 21,1 22,4 4 2 18 10 - 1014,3 10 0 0,0
19.10.2017 23:00:00 16,1 9,0 14,8 21,1 22,3 9 5 15 8 NE 1013,9 10 0 0,0
19.10.2017 22:00:00 18,2 9,0 16,3 21,0 22,4 9 5 12 7 NNE 1014,0 10 0 0,0
19.10.2017 21:00:00 18,3 9,6 16,6 20,9 22,4 9 5 14 8 NE 1013,7 10 0 0,0
19.10.2017 20:00:00 19,6 11,1 18,1 20,8 22,4 9 5 16 8 NE 1013,3 10 0 0,0
19.10.2017 19:00:00 21,3 11,6 20,1 20,6 22,4 9 5 17 9 NE 1013,1 10 3 0,0
19.10.2017 18:00:00 23,1 10,5 22,3 20,4 22,4 4 2 9 5 - 1013,0 10 22 0,0
19.10.2017 17:00:00 24,7 10,6 25,7 20,1 22,4 4 2 7 4 - 1013,0 10 13 0,0
19.10.2017 16:00:00 24,5 13,1 26,1 20,0 22,4 8 4 23 12 SW 1013,3 10 43 0,0
19.10.2017 15:00:00 25,5 14,3 28,5 19,9 22,4 9 5 16 8 SW 1013,5 10 60 0,0
19.10.2017 14:00:00 25,0 13,9 30,4 19,8 22,4 11 6 16 9 S 1014,5 10 60 0,0
19.10.2017 13:00:00 23,8 10,8 31,8 19,8 22,4 11 6 16 8 SSW 1015,4 10 60 0,0
19.10.2017 12:00:00 23,1 11,5 31,6 19,9 22,4 8 4 13 7 WSW 1015,7 10 60 0,0
19.10.2017 11:00:00 22,2 6,0 24,3 20,1 22,4 5 3 10 5 - 1015,7 10 60 0,0
19.10.2017 10:00:00 17,8 6,9 15,1 20,2 22,4 8 4 15 8 NE 1015,8 10 60 0,0
19.10.2017 09:00:00 12,3 5,9 10,0 20,4 22,4 13 7 19 10 NE 1016,0 10 51 0,0
19.10.2017 08:00:00 10,4 5,4 9,0 20,5 22,4 13 7 18 10 NE 1016,0 10 0 0,0
19.10.2017 07:00:00 10,4 5,4 9,2 20,7 22,4 9 5 18 10 ENE 1015,9 10 0 0,0
19.10.2017 06:00:00 10,4 5,6 9,3 20,8 22,5 11 6 16 9 NE 1015,8 10 0 0,0
19.10.2017 05:00:00 10,9 6,0 9,7 20,9 22,5 13 7 17 9 NE 1015,7 10 0 0,0
19.10.2017 04:00:00 11,1 6,8 9,5 21,0 22,5 9 5 16 9 NE 1015,6 10 0 0,0
19.10.2017 03:00:00 10,4 7,3 9,5 21,2 22,5 8 4 11 6 NE 1016,1 10 0 0,0
19.10.2017 02:00:00 11,1 7,8 10,0 21,3 22,5 8 4 16 8 NE 1016,5 10 0 0,0
19.10.2017 01:00:00 12,2 8,7 11,0 21,3 22,5 11 6 14 8 NE 1016,7 10 0 0,0
19.10.2017 00:00:00 12,4 9,8 11,4 21,3 22,4 11 6 13 7 ENE 1017,3 10 0 0,0
18.10.2017 23:00:00 14,1 10,9 12,8 21,3 22,5 9 5 12 7 NE 1017,7 10 0 0,0
18.10.2017 22:00:00 14,5 11,6 13,5 21,3 22,5 9 5 16 9 NE 1017,5 10 0 0,0
18.10.2017 21:00:00 15,3 12,2 13,9 21,2 22,5 9 5 14 8 NE 1017,6 9 0 0,0
18.10.2017 20:00:00 16,8 14,1 15,0 21,0 22,5 4 2 6 3 E 1017,4 10 0 0,0
18.10.2017 19:00:00 19,1 15,4 15,6 20,8 22,5 0 0 8 4 N 1016,9 10 4 0,0
18.10.2017 18:00:00 21,3 16,0 20,1 20,6 22,5 8 4 12 7 SW 1017,0 10 49 0,0
18.10.2017 17:00:00 22,5 15,8 24,1 20,4 22,5 9 5 20 11 SW 1017,1 10 60 0,0
18.10.2017 16:00:00 22,7 16,9 23,9 20,2 22,5 15 8 31 17 WSW 1017,5 10 60 0,0
18.10.2017 15:00:00 23,1 16,6 29,2 20,1 22,5 13 7 18 10 SW 1017,8 10 60 0,0
18.10.2017 14:00:00 22,5 16,8 29,3 20,0 22,5 13 7 19 11 SW 1018,7 10 60 0,0
18.10.2017 13:00:00 22,1 15,4 30,1 20,1 22,5 13 7 21 11 WSW 1019,5 10 60 0,0
18.10.2017 12:00:00 21,5 12,1 31,3 20,2 22,5 11 6 15 8 SW 1020,1 10 60 0,0
18.10.2017 11:00:00 22,0 8,5 22,4 20,4 22,5 4 2 9 5 - 1020,1 10 60 0,0
18.10.2017 10:00:00 16,5 8,2 15,7 20,5 22,5 5 3 15 8 NE 1020,3 10 60 0,0
18.10.2017 09:00:00 12,4 8,3 9,1 20,6 22,5 9 5 14 8 NE 1020,2 10 53 0,0
18.10.2017 08:00:00 10,1 6,6 8,9 20,8 22,5 11 6 18 10 NE 1020,0 10 0 0,0
18.10.2017 07:00:00 10,5 7,0 9,0 20,9 22,6 11 6 16 9 NE 1020,5 10 0 0,0
18.10.2017 06:00:00 10,6 7,5 9,5 21,0 22,5 9 5 16 9 NE 1021,0 10 0 0,0
18.10.2017 05:00:00 11,3 7,8 10,2 21,2 22,6 13 7 18 10 NE 1021,0 10 0 0,0
18.10.2017 04:00:00 11,1 8,8 9,8 21,3 22,6 13 7 17 9 NE 1021,2 10 0 0,0
18.10.2017 03:00:00 11,7 9,8 10,6 21,4 22,6 9 5 14 7 NE 1021,7 10 0 0,0
18.10.2017 02:00:00 12,6 10,1 11,1 21,5 22,6 9 5 15 8 NE 1021,9 10 0 0,0
18.10.2017 01:00:00 12,7 10,8 11,9 21,5 22,6 11 6 16 9 NE 1022,1 10 0 0,0
18.10.2017 00:00:00 13,0 11,6 12,1 21,6 22,6 11 6 16 8 NE 1022,6 9 0 0,2
17.10.2017 23:00:00 13,7 12,3 12,8 21,5 22,6 5 3 11 6 NE 1022,7 7 0 0,0
17.10.2017 22:00:00 15,1 13,5 13,9 21,5 22,6 5 3 9 5 NE 1022,5 6 0 0,0
17.10.2017 21:00:00 16,2 14,4 14,7 21,4 22,6 8 4 11 6 NE 1022,7 7 0 0,0
17.10.2017 20:00:00 17,5 14,8 16,0 21,2 22,6 5 3 8 4 NE 1022,9 8 0 0,0
17.10.2017 19:00:00 19,7 16,2 17,3 21,0 22,6 5 3 10 6 S 1022,7 10 29 0,0
17.10.2017 18:00:00 21,8 16,1 21,2 20,8 22,6 9 5 14 8 S 1022,6 10 60 0,0
17.10.2017 17:00:00 22,5 15,8 23,9 20,6 22,6 8 4 20 11 SSW 1022,8 10 60 0,0
17.10.2017 16:00:00 22,9 16,9 23,9 20,4 22,6 15 8 26 14 SSW 1023,3 20 60 0,0
17.10.2017 15:00:00 22,8 17,0 28,3 20,3 22,6 18 10 24 13 SW 1023,8 33 60 0,0
17.10.2017 14:00:00 22,4 16,0 29,5 20,3 22,6 13 7 21 11 SSW 1024,2 10 60 0,0
17.10.2017 13:00:00 21,9 16,4 30,2 20,3 22,6 13 7 19 10 WSW 1024,9 10 60 0,0
17.10.2017 12:00:00 21,0 15,5 30,4 20,4 22,6 8 4 15 8 SW 1025,6 10 60 0,0
17.10.2017 11:00:00 20,4 12,9 22,8 20,5 22,6 11 6 18 10 SSW 1026,1 10 60 0,0
17.10.2017 10:00:00 17,4 11,4 16,7 20,7 22,6 4 2 13 7 - 1025,9 10 60 0,0
17.10.2017 09:00:00 13,2 9,4 9,9 20,8 22,6 11 6 16 9 NE 1025,6 10 49 0,0
17.10.2017 08:00:00 10,8 8,6 9,6 21,0 22,6 11 6 19 10 NE 1025,7 20 0 0,0
17.10.2017 07:00:00 10,6 8,9 9,1 21,1 22,7 11 6 15 8 NE 1025,5 10 0 0,0
17.10.2017 06:00:00 11,2 9,1 10,2 21,2 22,6 11 6 16 8 NE 1025,6 10 0 0,0
17.10.2017 05:00:00 11,6 9,5 10,0 21,4 22,6 11 6 16 9 NE 1025,8 10 0 0,0
17.10.2017 04:00:00 11,0 9,4 10,1 21,5 22,7 11 6 14 8 NE 1025,9 10 0 0,0
17.10.2017 03:00:00 12,7 10,6 11,3 21,5 22,6 9 5 16 9 NE 1026,2 10 0 0,0
17.10.2017 02:00:00 12,1 10,7 11,3 21,6 22,6 11 6 16 9 NE 1026,5 10 0 0,0
17.10.2017 01:00:00 12,6 11,2 11,7 21,7 22,6 9 5 12 6 NE 1026,8 8 0 0,0
17.10.2017 00:00:00 13,8 12,2 12,8 21,7 22,7 9 5 13 7 NE 1027,0 9 0 0,0
16.10.2017 23:00:00 14,6 12,8 13,6 21,7 22,7 11 6 14 8 NE 1027,0 8 0 0,0
16.10.2017 22:00:00 14,8 13,0 13,8 21,7 22,6 9 5 13 7 NE 1027,1 9 0 0,0
16.10.2017 21:00:00 15,8 13,8 14,8 21,6 22,7 11 6 14 7 NE 1027,2 10 0 0,0
16.10.2017 20:00:00 17,3 14,6 15,7 21,5 22,7 5 3 8 4 NE 1027,2 8 0 0,0
16.10.2017 19:00:00 19,3 15,6 16,0 21,2 22,7 4 2 11 6 - 1027,0 10 31 0,0
16.10.2017 18:00:00 21,3 16,3 21,0 21,0 22,7 9 5 13 7 SW 1026,9 10 60 0,0
16.10.2017 17:00:00 22,2 16,7 24,1 20,8 22,6 11 6 16 8 SW 1027,0 10 60 0,0
16.10.2017 16:00:00 22,5 16,5 24,2 20,7 22,7 13 7 19 10 SW 1027,2 10 60 0,0
16.10.2017 15:00:00 22,6 16,4 29,2 20,6 22,7 16 9 22 12 SW 1027,6 10 60 0,0
16.10.2017 14:00:00 22,5 16,8 30,0 20,5 22,7 16 9 21 12 SW 1027,7 10 60 0,0
16.10.2017 13:00:00 22,0 15,8 29,8 20,5 22,7 13 7 18 10 SW 1028,1 10 60 0,0
16.10.2017 12:00:00 21,4 14,8 29,9 20,7 22,7 9 5 19 11 SW 1028,4 10 60 0,0
16.10.2017 11:00:00 21,7 12,8 22,1 20,8 22,7 2 1 9 5 - 1028,6 10 60 0,0
16.10.2017 10:00:00 16,5 10,8 16,3 20,9 22,7 8 4 13 7 NE 1028,8 10 60 0,0
16.10.2017 09:00:00 12,8 9,4 10,2 21,1 22,7 11 6 16 8 NE 1028,7 10 56 0,0
16.10.2017 08:00:00 10,6 9,0 9,6 21,2 22,7 11 6 19 11 NE 1028,2 10 0 0,0
16.10.2017 07:00:00 10,6 9,2 9,6 21,4 22,7 11 6 16 8 NE 1027,9 10 0 0,0
16.10.2017 06:00:00 11,2 9,8 10,0 21,5 22,7 9 5 14 8 NE 1027,8 10 0 0,0
16.10.2017 05:00:00 10,9 9,7 10,0 21,6 22,7 8 4 12 6 NE 1027,7 10 0 0,0
16.10.2017 04:00:00 11,8 10,4 10,8 21,7 22,7 5 3 10 6 NE 1027,8 8 0 0,0
16.10.2017 03:00:00 12,4 10,8 11,1 21,8 22,7 9 5 13 7 NE 1028,0 10 0 0,2
16.10.2017 02:00:00 12,8 11,2 11,7 21,9 22,7 9 5 14 8 NE 1028,2 10 0 0,0
16.10.2017 01:00:00 13,1 11,8 12,2 22,0 22,7 11 6 14 7 NE 1028,4 10 0 0,0
16.10.2017 00:00:00 13,5 12,1 12,6 22,1 22,7 9 5 14 8 NE 1028,7 10 0 0,0
15.10.2017 23:00:00 14,5 12,7 13,1 22,1 22,7 8 4 11 6 NE 1028,6 9 0 0,0
15.10.2017 22:00:00 15,5 13,3 14,3 21,9 22,7 8 4 12 6 ENE 1028,5 10 0 0,0
15.10.2017 21:00:00 16,0 13,8 14,9 21,9 22,7 9 5 12 7 ENE 1028,4 10 0 0,0
15.10.2017 20:00:00 18,1 15,0 16,1 21,7 22,7 5 3 6 3 NE 1028,2 10 0 0,0
15.10.2017 19:00:00 20,0 15,8 17,8 21,5 22,7 5 3 11 6 S 1027,9 10 29 0,0
15.10.2017 18:00:00 21,8 15,6 21,6 21,3 22,7 9 5 14 8 SSW 1027,5 10 60 0,0
15.10.2017 17:00:00 22,8 15,4 24,1 21,1 22,7 11 6 18 10 SSW 1027,7 10 60 0,0
15.10.2017 16:00:00 23,2 15,8 24,5 20,9 22,7 13 7 21 11 SSW 1028,0 10 60 0,0
15.10.2017 15:00:00 23,1 15,2 29,7 20,8 22,8 15 8 24 13 SSW 1028,3 10 60 0,0
15.10.2017 14:00:00 23,3 15,1 31,5 20,8 22,7 15 8 21 11 SW 1028,8 10 60 0,0
15.10.2017 13:00:00 22,6 15,7 30,9 20,8 22,7 13 7 23 12 SW 1029,4 10 60 0,0
15.10.2017 12:00:00 21,5 12,6 30,9 20,9 22,7 8 4 11 6 SW 1029,7 10 60 0,0
15.10.2017 11:00:00 21,6 10,4 24,3 21,0 22,7 4 2 6 4 - 1029,9 10 60 0,0
15.10.2017 10:00:00 17,4 10,7 16,6 21,2 22,8 5 3 12 6 - 1029,9 10 60 0,0

tt = Température de l'air
td = dewpoint
tt 5cm = Température de l'air 5cm
tt -20cm = Température de l'air -20cm
tt -100cm = Température de l'air -100cm
ff = Vitesse du vent
fx = gusts
dd = Direction du vent
ppp = reduced air pressure
vv = visibility
sd = Ensoleillement
rr = Quantités de précipitations

stations d'obs. à proximité